User: anonymous   Login
Location: Unspecified
(0.0000°N, 0.0000°E)
Time: 17:06:01
(UTC+00:00)
Language:

PRISM - Orbit

View from above orbital plane
View from above orbital plane
View from above satellite
View from above satellite

Ground track
Ground track

The orbit data is extracted from the following two-line orbital elements,

1 33493U 09002B   17265.16535877  .00000896  00000-0  85804-4 0  9998
2 33493  98.1542 151.6265 0016456 119.2350 241.0523 14.95817318470276
Epoch (UTC): 22 September 2017 03:58:06
Eccentricity: 0.0016456
inclination: 98.1542°
perigee height: 568 km
apogee height: 591 km
right ascension of ascending node: 151.6265°
argument of perigee: 119.2350°
revolutions per day: 14.95817318
mean anomaly at epoch: 241.0523°
orbit number at epoch: 47027

The dashed part of the orbit path shows where the satellite is in the earth's shadow,  

DLR